Time,TemperatureF,DewpointF,PressureIn,WindDirection,WindDirectionDegrees,WindSpeedMPH,WindSpeedGustMPH,Humidity,HourlyPrecipIn,Conditions,Clouds,dailyrainin,SoftwareType,DateUTC
2013-01-18 00:01:00,35.3,27.5,30.06,NW,313,1.0,1.0,73,0.00,,,0.00,Wunderground v.1.15,2013-01-18 05:01:00,
2013-01-18 00:04:00,35.3,27.5,30.06,NW,313,1.0,3.0,73,0.00,,,0.00,Wunderground v.1.15,2013-01-18 05:04:00,
2013-01-18 00:10:00,35.0,27.9,30.07,NW,323,2.0,5.0,75,0.00,,,0.00,Wunderground v.1.15,2013-01-18 05:10:00,
2013-01-18 00:15:00,35.2,27.7,30.08,West,277,4.0,7.0,74,0.00,,,0.00,Wunderground v.1.15,2013-01-18 05:15:00,
2013-01-18 00:16:00,35.3,27.8,30.08,WNW,291,4.0,7.0,74,0.00,,,0.00,Wunderground v.1.15,2013-01-18 05:16:00,
2013-01-18 00:21:00,35.4,27.9,30.08,WNW,285,5.0,5.0,74,0.00,,,0.00,Wunderground v.1.15,2013-01-18 05:21:00,
2013-01-18 00:26:00,35.4,27.6,30.08,WNW,296,5.0,7.0,73,0.00,,,0.00,Wunderground v.1.15,2013-01-18 05:26:00,
2013-01-18 00:31:00,35.3,27.5,30.08,WNW,297,4.0,5.0,73,0.00,,,0.00,Wunderground v.1.15,2013-01-18 05:31:00,
2013-01-18 00:36:00,35.3,27.8,30.09,WNW,290,4.0,5.0,74,0.00,,,0.00,Wunderground v.1.15,2013-01-18 05:36:00,
2013-01-18 00:41:00,34.9,27.8,30.09,WNW,289,4.0,4.0,75,0.00,,,0.00,Wunderground v.1.15,2013-01-18 05:41:00,
2013-01-18 00:47:00,34.9,27.8,30.09,WNW,293,5.0,7.0,75,0.00,,,0.00,Wunderground v.1.15,2013-01-18 05:47:00,
2013-01-18 00:53:00,35.0,27.9,30.10,WNW,294,7.0,8.0,75,0.00,,,0.00,Wunderground v.1.15,2013-01-18 05:53:00,
2013-01-18 00:58:00,34.9,27.8,30.10,WNW,284,8.0,10.0,75,0.00,,,0.00,Wunderground v.1.15,2013-01-18 05:58:00,
2013-01-18 01:04:00,34.5,27.7,30.10,NW,311,6.0,7.0,76,0.00,,,0.00,Wunderground v.1.15,2013-01-18 06:04:00,
2013-01-18 01:11:00,34.4,27.3,30.11,WNW,296,5.0,5.0,75,0.00,,,0.00,Wunderground v.1.15,2013-01-18 06:11:00,
2013-01-18 01:17:00,34.2,27.1,30.11,NW,317,5.0,7.0,75,0.00,,,0.00,Wunderground v.1.15,2013-01-18 06:17:00,
2013-01-18 01:22:00,34.4,27.3,30.11,NW,304,4.0,8.0,75,0.00,,,0.00,Wunderground v.1.15,2013-01-18 06:22:00,
2013-01-18 01:27:00,34.4,27.3,30.11,WNW,286,4.0,10.0,75,0.00,,,0.00,Wunderground v.1.15,2013-01-18 06:27:00,
2013-01-18 01:34:00,34.1,27.3,30.12,WNW,286,4.0,6.0,76,0.00,,,0.00,Wunderground v.1.15,2013-01-18 06:34:00,
2013-01-18 01:40:00,34.1,27.3,30.13,WNW,292,4.0,6.0,76,0.00,,,0.00,Wunderground v.1.15,2013-01-18 06:40:00,
2013-01-18 01:46:00,34.1,27.0,30.13,WSW,255,5.0,7.0,75,0.00,,,0.00,Wunderground v.1.15,2013-01-18 06:46:00,
2013-01-18 01:51:00,34.4,27.0,30.14,West,277,6.0,6.0,74,0.00,,,0.00,Wunderground v.1.15,2013-01-18 06:51:00,
2013-01-18 01:57:00,34.2,26.8,30.14,WNW,282,6.0,10.0,74,0.00,,,0.00,Wunderground v.1.15,2013-01-18 06:57:00,
2013-01-18 02:04:00,34.6,26.8,30.14,West,267,6.0,11.0,73,0.00,,,0.00,Wunderground v.1.15,2013-01-18 07:04:00,
2013-01-18 02:10:00,34.6,26.8,30.15,WNW,284,7.0,12.0,73,0.00,,,0.00,Wunderground v.1.15,2013-01-18 07:10:00,
2013-01-18 02:15:00,34.7,26.6,30.15,West,281,7.0,10.0,72,0.00,,,0.00,Wunderground v.1.15,2013-01-18 07:15:00,
2013-01-18 02:21:00,34.5,26.4,30.15,WNW,300,7.0,7.0,72,0.00,,,0.00,Wunderground v.1.15,2013-01-18 07:21:00,
2013-01-18 02:26:00,34.2,26.4,30.16,WNW,290,5.0,7.0,73,0.00,,,0.00,Wunderground v.1.15,2013-01-18 07:26:00,
2013-01-18 02:32:00,34.1,26.3,30.16,WNW,302,5.0,11.0,73,0.00,,,0.00,Wunderground v.1.15,2013-01-18 07:32:00,
2013-01-18 02:38:00,33.9,26.2,30.16,West,271,4.0,11.0,73,0.00,,,0.00,Wunderground v.1.15,2013-01-18 07:38:00,
2013-01-18 02:43:00,33.4,26.0,30.16,West,271,2.0,3.0,74,0.00,,,0.00,Wunderground v.1.15,2013-01-18 07:43:00,
2013-01-18 02:49:00,33.0,25.9,30.16,West,271,1.0,3.0,75,0.00,,,0.00,Wunderground v.1.15,2013-01-18 07:49:00,
2013-01-18 02:54:00,33.2,26.1,30.16,West,272,1.0,2.0,75,0.00,,,0.00,Wunderground v.1.15,2013-01-18 07:54:00,
2013-01-18 02:59:00,33.4,26.0,30.16,West,272,1.0,2.0,74,0.00,,,0.00,Wunderground v.1.15,2013-01-18 07:59:00,
2013-01-18 03:04:00,33.7,26.3,30.16,West,277,2.0,4.0,74,0.00,,,0.00,Wunderground v.1.15,2013-01-18 08:04:00,
2013-01-18 03:10:00,33.7,26.0,30.16,WNW,284,3.0,5.0,73,0.00,,,0.00,Wunderground v.1.15,2013-01-18 08:10:00,
2013-01-18 03:16:00,33.7,26.0,30.16,West,259,3.0,5.0,73,0.00,,,0.00,Wunderground v.1.15,2013-01-18 08:16:00,
2013-01-18 03:21:00,33.9,25.8,30.16,West,276,4.0,7.0,72,0.00,,,0.00,Wunderground v.1.15,2013-01-18 08:21:00,
2013-01-18 03:27:00,34.1,25.7,30.17,West,274,5.0,9.0,71,0.00,,,0.00,Wunderground v.1.15,2013-01-18 08:27:00,
2013-01-18 03:32:00,34.4,25.6,30.17,WNW,282,6.0,6.0,70,0.00,,,0.00,Wunderground v.1.15,2013-01-18 08:32:00,
2013-01-18 03:37:00,34.6,24.8,30.17,West,281,7.0,9.0,67,0.00,,,0.00,Wunderground v.1.15,2013-01-18 08:37:00,
2013-01-18 03:42:00,34.6,24.4,30.17,WNW,285,6.0,6.0,66,0.00,,,0.00,Wunderground v.1.15,2013-01-18 08:42:00,
2013-01-18 03:49:00,34.6,24.0,30.17,WNW,295,4.0,6.0,65,0.00,,,0.00,Wunderground v.1.15,2013-01-18 08:49:00,
2013-01-18 03:55:00,34.6,23.7,30.17,West,261,3.0,5.0,64,0.00,,,0.00,Wunderground v.1.15,2013-01-18 08:55:00,
2013-01-18 04:00:00,34.4,23.1,30.17,NW,325,3.0,3.0,63,0.00,,,0.00,Wunderground v.1.15,2013-01-18 09:00:00,
2013-01-18 04:06:00,34.4,22.7,30.18,West,262,4.0,7.0,62,0.00,,,0.00,Wunderground v.1.15,2013-01-18 09:06:00,
2013-01-18 04:12:00,34.5,22.0,30.19,NNW,342,5.0,5.0,60,0.00,,,0.00,Wunderground v.1.15,2013-01-18 09:12:00,
2013-01-18 04:17:00,34.6,21.7,30.19,WNW,297,5.0,8.0,59,0.00,,,0.00,Wunderground v.1.15,2013-01-18 09:17:00,
2013-01-18 04:22:00,34.6,21.7,30.19,WNW,285,6.0,10.0,59,0.00,,,0.00,Wunderground v.1.15,2013-01-18 09:22:00,
2013-01-18 04:28:00,34.7,21.8,30.19,WNW,289,6.0,11.0,59,0.00,,,0.00,Wunderground v.1.15,2013-01-18 09:28:00,
2013-01-18 04:34:00,34.5,22.0,30.20,WNW,299,5.0,6.0,60,0.00,,,0.00,Wunderground v.1.15,2013-01-18 09:34:00,
2013-01-18 04:40:00,34.3,21.4,30.20,WNW,297,5.0,5.0,59,0.00,,,0.00,Wunderground v.1.15,2013-01-18 09:40:00,
2013-01-18 04:46:00,33.9,21.5,30.20,WNW,287,5.0,5.0,60,0.00,,,0.00,Wunderground v.1.15,2013-01-18 09:46:00,
2013-01-18 04:51:00,33.8,21.0,30.20,WNW,282,5.0,7.0,59,0.00,,,0.00,Wunderground v.1.15,2013-01-18 09:51:00,
2013-01-18 04:56:00,33.5,20.7,30.21,NW,308,5.0,7.0,59,0.00,,,0.00,Wunderground v.1.15,2013-01-18 09:56:00,
2013-01-18 05:01:00,33.6,20.4,30.21,NW,307,5.0,11.0,58,0.00,,,0.00,Wunderground v.1.15,2013-01-18 10:01:00,
2013-01-18 05:06:00,33.6,19.6,30.21,West,275,7.0,13.0,56,0.00,,,0.00,Wunderground v.1.15,2013-01-18 10:06:00,
2013-01-18 05:11:00,33.5,19.5,30.22,NNW,331,8.0,8.0,56,0.00,,,0.00,Wunderground v.1.15,2013-01-18 10:11:00,
2013-01-18 05:17:00,33.2,18.8,30.23,NW,313,7.0,9.0,55,0.00,,,0.00,Wunderground v.1.15,2013-01-18 10:17:00,
2013-01-18 05:22:00,32.9,18.1,30.23,WSW,250,7.0,11.0,54,0.00,,,0.00,Wunderground v.1.15,2013-01-18 10:22:00,
2013-01-18 05:27:00,32.6,17.8,30.23,NW,317,7.0,11.0,54,0.00,,,0.00,Wunderground v.1.15,2013-01-18 10:27:00,
2013-01-18 05:34:00,32.1,17.7,30.24,NW,319,7.0,10.0,55,0.00,,,0.00,Wunderground v.1.15,2013-01-18 10:34:00,
2013-01-18 05:40:00,31.9,17.1,30.24,WNW,291,7.0,7.0,54,0.00,,,0.00,Wunderground v.1.15,2013-01-18 10:40:00,
2013-01-18 05:46:00,31.7,16.9,30.24,NNW,332,9.0,13.0,54,0.00,,,0.00,Wunderground v.1.15,2013-01-18 10:46:00,
2013-01-18 05:51:00,31.4,17.9,30.25,North,355,10.0,11.0,57,0.00,,,0.00,Wunderground v.1.15,2013-01-18 10:51:00,
2013-01-18 05:56:00,31.0,17.5,30.25,WNW,285,9.0,12.0,57,0.00,,,0.00,Wunderground v.1.15,2013-01-18 10:56:00,
2013-01-18 06:02:00,31.0,17.5,30.26,West,276,8.0,9.0,57,0.00,,,0.00,Wunderground v.1.15,2013-01-18 11:02:00,
2013-01-18 06:07:00,30.6,17.6,30.27,West,273,8.0,12.0,58,0.00,,,0.00,Wunderground v.1.15,2013-01-18 11:07:00,
2013-01-18 06:13:00,30.4,17.8,30.27,NNW,329,7.0,8.0,59,0.00,,,0.00,Wunderground v.1.15,2013-01-18 11:13:00,
2013-01-18 06:19:00,30.2,17.6,30.28,WNW,300,6.0,10.0,59,0.00,,,0.00,Wunderground v.1.15,2013-01-18 11:19:00,
2013-01-18 06:24:00,30.2,17.6,30.28,NNW,336,8.0,13.0,59,0.00,,,0.00,Wunderground v.1.15,2013-01-18 11:24:00,
2013-01-18 06:29:00,29.9,17.7,30.29,North,355,8.0,13.0,60,0.00,,,0.00,Wunderground v.1.15,2013-01-18 11:29:00,
2013-01-18 06:34:00,29.9,17.3,30.29,NW,306,7.0,8.0,59,0.00,,,0.00,Wunderground v.1.15,2013-01-18 11:34:00,
2013-01-18 06:40:00,29.8,17.2,30.30,North,10,8.0,11.0,59,0.00,,,0.00,Wunderground v.1.15,2013-01-18 11:40:00,
2013-01-18 06:46:00,29.6,16.6,30.30,NW,310,7.0,8.0,58,0.00,,,0.00,Wunderground v.1.15,2013-01-18 11:46:00,
2013-01-18 06:51:00,29.3,16.3,30.31,NNW,331,7.0,8.0,58,0.00,,,0.00,Wunderground v.1.15,2013-01-18 11:51:00,
2013-01-18 06:56:00,29.2,16.2,30.31,West,266,7.0,11.0,58,0.00,,,0.00,Wunderground v.1.15,2013-01-18 11:56:00,
2013-01-18 07:02:00,28.9,16.0,30.32,West,281,7.0,7.0,58,0.00,,,0.00,Wunderground v.1.15,2013-01-18 12:02:00,
2013-01-18 07:07:00,28.7,16.2,30.32,NW,324,6.0,7.0,59,0.00,,,0.00,Wunderground v.1.15,2013-01-18 12:07:00,
2013-01-18 07:13:00,28.7,16.2,30.33,West,275,7.0,8.0,59,0.00,,,0.00,Wunderground v.1.15,2013-01-18 12:13:00,
2013-01-18 07:19:00,28.7,15.8,30.33,NNW,339,7.0,15.0,58,0.00,,,0.00,Wunderground v.1.15,2013-01-18 12:19:00,
2013-01-18 07:25:00,28.7,15.8,30.34,NW,313,7.0,10.0,58,0.00,,,0.00,Wunderground v.1.15,2013-01-18 12:25:00,
2013-01-18 07:31:00,28.6,15.7,30.34,WNW,290,6.0,8.0,58,0.00,,,0.00,Wunderground v.1.15,2013-01-18 12:31:00,
2013-01-18 07:36:00,28.6,15.3,30.35,North,355,6.0,8.0,57,0.00,,,0.00,Wunderground v.1.15,2013-01-18 12:36:00,
2013-01-18 07:41:00,28.6,15.7,30.35,NNE,13,7.0,7.0,58,0.00,,,0.00,Wunderground v.1.15,2013-01-18 12:41:00,
2013-01-18 07:46:00,28.6,14.9,30.35,NNW,327,6.0,10.0,56,0.00,,,0.00,Wunderground v.1.15,2013-01-18 12:46:00,
2013-01-18 07:51:00,28.6,14.5,30.36,NW,309,6.0,7.0,55,0.00,,,0.00,Wunderground v.1.15,2013-01-18 12:51:00,
2013-01-18 07:56:00,28.6,14.5,30.37,North,5,6.0,10.0,55,0.00,,,0.00,Wunderground v.1.15,2013-01-18 12:56:00,
2013-01-18 08:02:00,28.7,15.0,30.37,NW,321,6.0,6.0,56,0.00,,,0.00,Wunderground v.1.15,2013-01-18 13:02:00,
2013-01-18 08:08:00,28.8,14.6,30.38,WNW,299,5.0,9.0,55,0.00,,,0.00,Wunderground v.1.15,2013-01-18 13:08:00,
2013-01-18 08:14:00,28.9,14.7,30.38,NNE,22,5.0,7.0,55,0.00,,,0.00,Wunderground v.1.15,2013-01-18 13:14:00,
2013-01-18 08:19:00,29.0,15.2,30.38,WNW,301,4.0,7.0,56,0.00,,,0.00,Wunderground v.1.15,2013-01-18 13:19:00,
2013-01-18 08:24:00,29.1,15.3,30.39,NNE,21,3.0,9.0,56,0.00,,,0.00,Wunderground v.1.15,2013-01-18 13:24:00,
2013-01-18 08:29:00,29.4,16.0,30.39,North,9,4.0,9.0,57,0.00,,,0.00,Wunderground v.1.15,2013-01-18 13:29:00,
2013-01-18 08:34:00,29.6,16.2,30.40,NW,323,4.0,4.0,57,0.00,,,0.00,Wunderground v.1.15,2013-01-18 13:34:00,
2013-01-18 08:40:00,29.7,16.3,30.41,WNW,293,4.0,6.0,57,0.00,,,0.00,Wunderground v.1.15,2013-01-18 13:40:00,
2013-01-18 08:46:00,29.9,16.5,30.41,WNW,302,4.0,6.0,57,0.00,,,0.00,Wunderground v.1.15,2013-01-18 13:46:00,
2013-01-18 08:51:00,30.2,16.8,30.41,NNW,344,4.0,4.0,57,0.00,,,0.00,Wunderground v.1.15,2013-01-18 13:51:00,
2013-01-18 08:56:00,30.3,17.7,30.41,WSW,246,4.0,7.0,59,0.00,,,0.00,Wunderground v.1.15,2013-01-18 13:56:00,
2013-01-18 09:01:00,30.3,18.1,30.42,WNW,296,7.0,8.0,60,0.00,,,0.00,Wunderground v.1.15,2013-01-18 14:01:00,
2013-01-18 09:06:00,30.3,18.5,30.42,NW,321,8.0,13.0,61,0.00,,,0.00,Wunderground v.1.15,2013-01-18 14:06:00,
2013-01-18 09:12:00,30.2,17.6,30.43,West,273,6.0,7.0,59,0.00,,,0.00,Wunderground v.1.15,2013-01-18 14:12:00,
2013-01-18 09:17:00,30.1,18.6,30.43,West,275,5.0,7.0,62,0.00,,,0.00,Wunderground v.1.15,2013-01-18 14:17:00,
2013-01-18 09:23:00,29.8,18.4,30.44,NNW,344,3.0,5.0,62,0.00,,,0.00,Wunderground v.1.15,2013-01-18 14:23:00,
2013-01-18 09:28:00,30.4,19.3,30.45,NW,317,3.0,5.0,63,0.00,,,0.00,Wunderground v.1.15,2013-01-18 14:28:00,
2013-01-18 09:34:00,30.8,18.5,30.45,North,355,3.0,4.0,60,0.00,,,0.00,Wunderground v.1.15,2013-01-18 14:34:00,
2013-01-18 09:41:00,30.6,17.2,30.45,NW,323,4.0,6.0,57,0.00,,,0.00,Wunderground v.1.15,2013-01-18 14:41:00,
2013-01-18 09:47:00,30.5,16.7,30.45,NNW,348,4.0,6.0,56,0.00,,,0.00,Wunderground v.1.15,2013-01-18 14:47:00,
2013-01-18 09:52:00,30.7,16.4,30.45,West,279,6.0,8.0,55,0.00,,,0.00,Wunderground v.1.15,2013-01-18 14:52:00,
2013-01-18 09:58:00,30.9,17.8,30.45,WNW,299,7.0,9.0,58,0.00,,,0.00,Wunderground v.1.15,2013-01-18 14:58:00,
2013-01-18 10:04:00,30.7,15.6,30.46,WSW,254,6.0,7.0,53,0.00,,,0.00,Wunderground v.1.15,2013-01-18 15:04:00,
2013-01-18 10:10:00,29.8,16.0,30.46,West,263,5.0,5.0,56,0.00,,,0.00,Wunderground v.1.15,2013-01-18 15:10:00,
2013-01-18 10:15:00,29.9,14.8,30.47,WNW,291,5.0,6.0,53,0.00,,,0.00,Wunderground v.1.15,2013-01-18 15:15:00,
2013-01-18 10:21:00,30.1,15.4,30.47,West,259,5.0,5.0,54,0.00,,,0.00,Wunderground v.1.15,2013-01-18 15:21:00,
2013-01-18 10:27:00,30.5,14.5,30.47,West,279,4.0,5.0,51,0.00,,,0.00,Wunderground v.1.15,2013-01-18 15:27:00,
2013-01-18 10:34:00,31.0,16.3,30.48,WNW,303,6.0,13.0,54,0.00,,,0.00,Wunderground v.1.15,2013-01-18 15:34:00,
2013-01-18 10:40:00,31.4,16.2,30.48,West,275,7.0,8.0,53,0.00,,,0.00,Wunderground v.1.15,2013-01-18 15:40:00,
2013-01-18 10:46:00,31.2,16.5,30.48,WNW,293,7.0,12.0,54,0.00,,,0.00,Wunderground v.1.15,2013-01-18 15:46:00,
2013-01-18 10:51:00,31.4,16.2,30.48,WNW,300,7.0,8.0,53,0.00,,,0.00,Wunderground v.1.15,2013-01-18 15:51:00,
2013-01-18 10:56:00,31.9,17.5,30.47,WNW,302,5.0,8.0,55,0.00,,,0.00,Wunderground v.1.15,2013-01-18 15:56:00,
2013-01-18 11:02:00,31.8,15.3,30.47,NNW,327,4.0,6.0,50,0.00,,,0.00,Wunderground v.1.15,2013-01-18 16:02:00,
2013-01-18 11:08:00,31.0,15.4,30.47,North,355,6.0,8.0,52,0.00,,,0.00,Wunderground v.1.15,2013-01-18 16:08:00,
2013-01-18 11:13:00,31.5,13.1,30.47,NW,324,6.0,6.0,46,0.00,,,0.00,Wunderground v.1.15,2013-01-18 16:13:00,
2013-01-18 11:20:00,31.5,14.5,30.48,NNW,346,4.0,4.0,49,0.00,,,0.00,Wunderground v.1.15,2013-01-18 16:20:00,
2013-01-18 11:25:00,31.5,14.0,30.48,NNW,344,3.0,5.0,48,0.00,,,0.00,Wunderground v.1.15,2013-01-18 16:25:00,
2013-01-18 11:31:00,31.8,13.8,30.47,WNW,303,3.0,3.0,47,0.00,,,0.00,Wunderground v.1.15,2013-01-18 16:31:00,
2013-01-18 11:36:00,32.1,14.6,30.47,NNW,333,2.0,7.0,48,0.00,,,0.00,Wunderground v.1.15,2013-01-18 16:36:00,
2013-01-18 11:41:00,32.5,16.4,30.47,WNW,288,4.0,5.0,51,0.00,,,0.00,Wunderground v.1.15,2013-01-18 16:41:00,
2013-01-18 11:47:00,32.3,14.8,30.47,NW,304,3.0,5.0,48,0.00,,,0.00,Wunderground v.1.15,2013-01-18 16:47:00,
2013-01-18 11:52:00,32.2,16.1,30.47,NNW,334,3.0,4.0,51,0.00,,,0.00,Wunderground v.1.15,2013-01-18 16:52:00,
2013-01-18 11:57:00,32.5,15.4,30.46,WNW,298,4.0,9.0,49,0.00,,,0.00,Wunderground v.1.15,2013-01-18 16:57:00,
2013-01-18 12:02:00,32.3,13.8,30.46,WNW,283,6.0,9.0,46,0.00,,,0.00,Wunderground v.1.15,2013-01-18 17:02:00,
2013-01-18 12:08:00,32.8,15.2,30.45,West,259,6.0,9.0,48,0.00,,,0.00,Wunderground v.1.15,2013-01-18 17:08:00,
2013-01-18 12:13:00,32.6,14.1,30.45,West,277,6.0,11.0,46,0.00,,,0.00,Wunderground v.1.15,2013-01-18 17:13:00,
2013-01-18 12:19:00,32.8,15.7,30.45,WNW,301,6.0,11.0,49,0.00,,,0.00,Wunderground v.1.15,2013-01-18 17:19:00,
2013-01-18 12:25:00,32.7,12.6,30.44,North,5,5.0,6.0,43,0.00,,,0.00,Wunderground v.1.15,2013-01-18 17:25:00,
2013-01-18 12:31:00,33.0,12.4,30.44,WNW,299,4.0,5.0,42,0.00,,,0.00,Wunderground v.1.15,2013-01-18 17:31:00,
2013-01-18 12:36:00,33.2,13.6,30.44,WNW,289,5.0,5.0,44,0.00,,,0.00,Wunderground v.1.15,2013-01-18 17:36:00,
2013-01-18 12:41:00,33.3,14.7,30.44,NW,319,5.0,6.0,46,0.00,,,0.00,Wunderground v.1.15,2013-01-18 17:41:00,
2013-01-18 12:47:00,33.5,14.9,30.44,West,280,5.0,8.0,46,0.00,,,0.00,Wunderground v.1.15,2013-01-18 17:47:00,
2013-01-18 12:52:00,33.2,14.6,30.44,West,267,5.0,6.0,46,0.00,,,0.00,Wunderground v.1.15,2013-01-18 17:52:00,
2013-01-18 12:58:00,33.1,15.5,30.44,West,269,4.0,6.0,48,0.00,,,0.00,Wunderground v.1.15,2013-01-18 17:58:00,
2013-01-18 13:04:00,33.4,15.3,30.44,SW,226,3.0,4.0,47,0.00,,,0.00,Wunderground v.1.15,2013-01-18 18:04:00,
2013-01-18 13:10:00,34.0,16.8,30.44,NNW,327,3.0,5.0,49,0.00,,,0.00,Wunderground v.1.15,2013-01-18 18:10:00,
2013-01-18 13:15:00,34.4,15.7,30.44,West,277,4.0,6.0,46,0.00,,,0.00,Wunderground v.1.15,2013-01-18 18:15:00,
2013-01-18 13:21:00,34.7,16.5,30.44,West,275,4.0,6.0,47,0.00,,,0.00,Wunderground v.1.15,2013-01-18 18:21:00,
2013-01-18 13:26:00,34.5,16.3,30.44,West,275,5.0,6.0,47,0.00,,,0.00,Wunderground v.1.15,2013-01-18 18:26:00,
2013-01-18 13:31:00,34.0,14.3,30.44,West,275,6.0,8.0,44,0.00,,,0.00,Wunderground v.1.15,2013-01-18 18:31:00,
2013-01-18 13:36:00,34.5,16.3,30.45,WNW,292,4.0,8.0,47,0.00,,,0.00,Wunderground v.1.15,2013-01-18 18:36:00,
2013-01-18 13:42:00,34.5,14.8,30.44,West,277,5.0,9.0,44,0.00,,,0.00,Wunderground v.1.15,2013-01-18 18:42:00,
2013-01-18 13:47:00,34.5,14.8,30.44,West,273,6.0,10.0,44,0.00,,,0.00,Wunderground v.1.15,2013-01-18 18:47:00,
2013-01-18 13:52:00,34.8,15.6,30.44,West,273,6.0,6.0,45,0.00,,,0.00,Wunderground v.1.15,2013-01-18 18:52:00,
2013-01-18 13:57:00,35.0,16.8,30.44,NW,307,5.0,9.0,47,0.00,,,0.00,Wunderground v.1.15,2013-01-18 18:57:00,
2013-01-18 14:04:00,35.0,14.2,30.44,WNW,293,5.0,5.0,42,0.00,,,0.00,Wunderground v.1.15,2013-01-18 19:04:00,
2013-01-18 14:10:00,35.1,14.3,30.44,NW,310,5.0,5.0,42,0.00,,,0.00,Wunderground v.1.15,2013-01-18 19:10:00,
2013-01-18 14:15:00,35.2,16.0,30.44,WNW,290,5.0,5.0,45,0.00,,,0.00,Wunderground v.1.15,2013-01-18 19:15:00,
2013-01-18 14:21:00,35.5,14.1,30.44,NW,312,3.0,3.0,41,0.00,,,0.00,Wunderground v.1.15,2013-01-18 19:21:00,
2013-01-18 14:26:00,35.7,15.4,30.44,West,271,3.0,7.0,43,0.00,,,0.00,Wunderground v.1.15,2013-01-18 19:26:00,
2013-01-18 14:31:00,35.6,15.8,30.44,WNW,298,3.0,6.0,44,0.00,,,0.00,Wunderground v.1.15,2013-01-18 19:31:00,
2013-01-18 14:37:00,35.4,16.1,30.44,WSW,257,5.0,6.0,45,0.00,,,0.00,Wunderground v.1.15,2013-01-18 19:37:00,
2013-01-18 14:42:00,35.6,16.3,30.44,WSW,258,5.0,5.0,45,0.00,,,0.00,Wunderground v.1.15,2013-01-18 19:42:00,
2013-01-18 14:49:00,35.1,13.2,30.44,West,275,5.0,7.0,40,0.00,,,0.00,Wunderground v.1.15,2013-01-18 19:49:00,
2013-01-18 14:54:00,35.5,14.6,30.44,West,265,4.0,8.0,42,0.00,,,0.00,Wunderground v.1.15,2013-01-18 19:54:00,
2013-01-18 14:59:00,35.5,15.2,30.44,West,277,4.0,8.0,43,0.00,,,0.00,Wunderground v.1.15,2013-01-18 19:59:00,
2013-01-18 15:04:00,36.1,14.6,30.44,NW,313,5.0,6.0,41,0.00,,,0.00,Wunderground v.1.15,2013-01-18 20:04:00,
2013-01-18 15:10:00,36.2,13.6,30.44,WNW,284,5.0,7.0,39,0.00,,,0.00,Wunderground v.1.15,2013-01-18 20:10:00,
2013-01-18 15:16:00,36.4,14.3,30.44,WSW,242,5.0,5.0,40,0.00,,,0.00,Wunderground v.1.15,2013-01-18 20:16:00,
2013-01-18 15:21:00,36.2,14.7,30.44,WNW,294,4.0,5.0,41,0.00,,,0.00,Wunderground v.1.15,2013-01-18 20:21:00,
2013-01-18 15:26:00,36.4,13.8,30.44,NW,305,4.0,5.0,39,0.00,,,0.00,Wunderground v.1.15,2013-01-18 20:26:00,
2013-01-18 15:31:00,36.3,12.5,30.45,West,276,3.0,3.0,37,0.00,,,0.00,Wunderground v.1.15,2013-01-18 20:31:00,
2013-01-18 15:36:00,36.2,14.2,30.45,WNW,296,3.0,3.0,40,0.00,,,0.00,Wunderground v.1.15,2013-01-18 20:36:00,
2013-01-18 15:41:00,36.1,15.2,30.45,West,277,2.0,5.0,42,0.00,,,0.00,Wunderground v.1.15,2013-01-18 20:41:00,
2013-01-18 15:47:00,35.9,12.1,30.45,WNW,292,2.0,5.0,37,0.00,,,0.00,Wunderground v.1.15,2013-01-18 20:47:00,
2013-01-18 15:53:00,36.4,13.2,30.45,WNW,292,1.0,1.0,38,0.00,,,0.00,Wunderground v.1.15,2013-01-18 20:53:00,
2013-01-18 15:58:00,36.5,13.9,30.45,WNW,292,0.0,2.0,39,0.00,,,0.00,Wunderground v.1.15,2013-01-18 20:58:00,
2013-01-18 16:04:00,37.1,14.4,30.45,WNW,292,0.0,0.0,39,0.00,,,0.00,Wunderground v.1.15,2013-01-18 21:04:00,
2013-01-18 16:10:00,37.7,13.1,30.44,WNW,292,0.0,0.0,36,0.00,,,0.00,Wunderground v.1.15,2013-01-18 21:10:00,
2013-01-18 16:17:00,37.6,13.0,30.44,WNW,292,0.0,0.0,36,0.00,,,0.00,Wunderground v.1.15,2013-01-18 21:17:00,
2013-01-18 16:23:00,37.0,11.2,30.44,WNW,292,0.0,0.0,34,0.00,,,0.00,Wunderground v.1.15,2013-01-18 21:23:00,
2013-01-18 16:28:00,36.8,11.7,30.44,WNW,292,0.0,0.0,35,0.00,,,0.00,Wunderground v.1.15,2013-01-18 21:28:00,
2013-01-18 16:34:00,36.3,13.7,30.44,WNW,292,0.0,0.0,39,0.00,,,0.00,Wunderground v.1.15,2013-01-18 21:34:00,
2013-01-18 16:40:00,35.9,12.1,30.44,WNW,292,0.0,0.0,37,0.00,,,0.00,Wunderground v.1.15,2013-01-18 21:40:00,
2013-01-18 16:46:00,35.3,13.3,30.44,WNW,292,0.0,0.0,40,0.00,,,0.00,Wunderground v.1.15,2013-01-18 21:46:00,
2013-01-18 16:51:00,34.7,15.0,30.44,WNW,292,0.0,0.0,44,0.00,,,0.00,Wunderground v.1.15,2013-01-18 21:51:00,
2013-01-18 16:56:00,34.2,13.5,30.44,WNW,292,0.0,0.0,42,0.00,,,0.00,Wunderground v.1.15,2013-01-18 21:56:00,
2013-01-18 17:04:00,33.8,15.2,30.44,WNW,292,0.0,0.0,46,0.00,,,0.00,Wunderground v.1.15,2013-01-18 22:04:00,
2013-01-18 17:10:00,33.4,15.3,30.43,WNW,292,0.0,0.0,47,0.00,,,0.00,Wunderground v.1.15,2013-01-18 22:10:00,
2013-01-18 17:16:00,32.9,15.3,30.43,WNW,292,0.0,0.0,48,0.00,,,0.00,Wunderground v.1.15,2013-01-18 22:16:00,
2013-01-18 17:21:00,32.6,19.0,30.43,WNW,292,0.0,0.0,57,0.00,,,0.00,Wunderground v.1.15,2013-01-18 22:21:00,
2013-01-18 17:27:00,31.5,16.7,30.43,WNW,292,0.0,0.0,54,0.00,,,0.00,Wunderground v.1.15,2013-01-18 22:27:00,
2013-01-18 17:32:00,30.8,17.7,30.43,WNW,292,0.0,0.0,58,0.00,,,0.00,Wunderground v.1.15,2013-01-18 22:32:00,
2013-01-18 17:37:00,30.4,18.5,30.43,WNW,292,0.0,0.0,61,0.00,,,0.00,Wunderground v.1.15,2013-01-18 22:37:00,
2013-01-18 17:44:00,29.5,17.3,30.43,WNW,292,0.0,0.0,60,0.00,,,0.00,Wunderground v.1.15,2013-01-18 22:44:00,
2013-01-18 17:49:00,29.3,15.5,30.43,WNW,292,0.0,0.0,56,0.00,,,0.00,Wunderground v.1.15,2013-01-18 22:49:00,
2013-01-18 17:55:00,29.0,16.1,30.43,WNW,292,0.0,0.0,58,0.00,,,0.00,Wunderground v.1.15,2013-01-18 22:55:00,
2013-01-18 18:00:00,28.8,17.4,30.43,WNW,292,0.0,0.0,62,0.00,,,0.00,Wunderground v.1.15,2013-01-18 23:00:00,
2013-01-18 18:06:00,28.6,16.8,30.43,WNW,292,0.0,0.0,61,0.00,,,0.00,Wunderground v.1.15,2013-01-18 23:06:00,
2013-01-18 18:11:00,28.4,18.5,30.43,WNW,292,0.0,0.0,66,0.00,,,0.00,Wunderground v.1.15,2013-01-18 23:11:00,
2013-01-18 18:19:00,27.8,19.3,30.43,WNW,292,0.0,0.0,70,0.00,,,0.00,Wunderground v.1.15,2013-01-18 23:19:00,
2013-01-18 18:24:00,27.0,18.8,30.43,WNW,292,0.0,0.0,71,0.00,,,0.00,Wunderground v.1.15,2013-01-18 23:24:00,
2013-01-18 18:31:00,26.2,18.1,30.43,WNW,292,0.0,0.0,71,0.00,,,0.00,Wunderground v.1.15,2013-01-18 23:31:00,
2013-01-18 18:40:00,25.8,18.3,30.43,WNW,292,0.0,0.0,73,0.00,,,0.00,Wunderground v.1.15,2013-01-18 23:40:00,
2013-01-18 18:46:00,25.1,18.6,30.43,WNW,292,0.0,0.0,76,0.00,,,0.00,Wunderground v.1.15,2013-01-18 23:46:00,
2013-01-18 18:51:00,24.7,19.1,30.43,WNW,292,0.0,0.0,79,0.00,,,0.00,Wunderground v.1.15,2013-01-18 23:51:00,
2013-01-18 18:59:00,23.8,18.2,30.43,WNW,292,0.0,0.0,79,0.00,,,0.00,Wunderground v.1.15,2013-01-18 23:59:00,
2013-01-18 19:06:00,23.5,17.6,30.44,WNW,292,0.0,0.0,78,0.00,,,0.00,Wunderground v.1.15,2013-01-19 00:06:00,
2013-01-18 19:11:00,23.4,17.8,30.44,WNW,292,0.0,0.0,79,0.00,,,0.00,Wunderground v.1.15,2013-01-19 00:11:00,
2013-01-18 19:17:00,23.2,17.4,30.44,WNW,292,0.0,0.0,78,0.00,,,0.00,Wunderground v.1.15,2013-01-19 00:17:00,
2013-01-18 19:22:00,23.1,17.3,30.44,WNW,292,0.0,0.0,78,0.00,,,0.00,Wunderground v.1.15,2013-01-19 00:22:00,
2013-01-18 19:28:00,23.2,17.7,30.44,WNW,292,0.0,0.0,79,0.00,,,0.00,Wunderground v.1.15,2013-01-19 00:28:00,
2013-01-18 19:33:00,23.1,18.1,30.44,WNW,292,0.0,0.0,81,0.00,,,0.00,Wunderground v.1.15,2013-01-19 00:33:00,
2013-01-18 19:39:00,23.0,20.2,30.44,WNW,292,0.0,0.0,89,0.00,,,0.00,Wunderground v.1.15,2013-01-19 00:39:00,
2013-01-18 19:46:00,22.6,18.2,30.44,WNW,292,0.0,0.0,83,0.00,,,0.00,Wunderground v.1.15,2013-01-19 00:46:00,
2013-01-18 19:52:00,22.3,17.9,30.43,WNW,292,0.0,0.0,83,0.00,,,0.00,Wunderground v.1.15,2013-01-19 00:52:00,
2013-01-18 19:57:00,22.1,17.7,30.43,WNW,292,0.0,0.0,83,0.00,,,0.00,Wunderground v.1.15,2013-01-19 00:57:00,
2013-01-18 20:02:00,21.9,17.5,30.43,WNW,292,0.0,0.0,83,0.00,,,0.00,Wunderground v.1.15,2013-01-19 01:02:00,
2013-01-18 20:07:00,21.8,17.4,30.43,WNW,292,0.0,0.0,83,0.00,,,0.00,Wunderground v.1.15,2013-01-19 01:07:00,
2013-01-18 20:13:00,21.6,17.5,30.43,WNW,292,0.0,0.0,84,0.00,,,0.00,Wunderground v.1.15,2013-01-19 01:13:00,
2013-01-18 20:19:00,21.4,17.3,30.43,WNW,292,0.0,0.0,84,0.00,,,0.00,Wunderground v.1.15,2013-01-19 01:19:00,
2013-01-18 20:24:00,21.2,17.4,30.43,WNW,292,0.0,0.0,85,0.00,,,0.00,Wunderground v.1.15,2013-01-19 01:24:00,
2013-01-18 20:31:00,20.9,17.4,30.43,WNW,292,0.0,0.0,86,0.00,,,0.00,Wunderground v.1.15,2013-01-19 01:31:00,
2013-01-18 20:36:00,20.7,17.2,30.43,WNW,292,0.0,0.0,86,0.00,,,0.00,Wunderground v.1.15,2013-01-19 01:36:00,
2013-01-18 20:41:00,20.7,17.4,30.43,WNW,292,0.0,0.0,87,0.00,,,0.00,Wunderground v.1.15,2013-01-19 01:41:00,
2013-01-18 20:46:00,20.5,17.2,30.43,WNW,292,0.0,0.0,87,0.00,,,0.00,Wunderground v.1.15,2013-01-19 01:46:00,
2013-01-18 20:51:00,20.4,17.1,30.43,WNW,292,0.0,0.0,87,0.00,,,0.00,Wunderground v.1.15,2013-01-19 01:51:00,
2013-01-18 20:56:00,20.3,17.3,30.43,WNW,292,0.0,0.0,88,0.00,,,0.00,Wunderground v.1.15,2013-01-19 01:56:00,
2013-01-18 21:01:00,20.4,17.4,30.43,WNW,292,0.0,0.0,88,0.00,,,0.00,Wunderground v.1.15,2013-01-19 02:01:00,
2013-01-18 21:06:00,20.3,17.3,30.42,WNW,292,0.0,0.0,88,0.00,,,0.00,Wunderground v.1.15,2013-01-19 02:06:00,
2013-01-18 21:12:00,20.2,17.2,30.42,WNW,292,0.0,0.0,88,0.00,,,0.00,Wunderground v.1.15,2013-01-19 02:12:00,
2013-01-18 21:17:00,20.1,17.1,30.42,WNW,292,0.0,0.0,88,0.00,,,0.00,Wunderground v.1.15,2013-01-19 02:17:00,
2013-01-18 21:22:00,20.0,17.0,30.42,WNW,292,0.0,1.0,88,0.00,,,0.00,Wunderground v.1.15,2013-01-19 02:22:00,
2013-01-18 21:27:00,19.9,17.2,30.42,WNW,292,0.0,1.0,89,0.00,,,0.00,Wunderground v.1.15,2013-01-19 02:27:00,
2013-01-18 21:33:00,20.1,17.4,30.42,WNW,292,0.0,0.0,89,0.00,,,0.00,Wunderground v.1.15,2013-01-19 02:33:00,
2013-01-18 21:39:00,20.2,17.5,30.42,WNW,292,0.0,0.0,89,0.00,,,0.00,Wunderground v.1.15,2013-01-19 02:39:00,
2013-01-18 21:44:00,20.2,17.5,30.41,WNW,292,0.0,0.0,89,0.00,,,0.00,Wunderground v.1.15,2013-01-19 02:44:00,
2013-01-18 21:50:00,20.2,17.7,30.41,WNW,292,0.0,0.0,90,0.00,,,0.00,Wunderground v.1.15,2013-01-19 02:50:00,
2013-01-18 21:55:00,20.2,17.5,30.41,WNW,292,0.0,0.0,89,0.00,,,0.00,Wunderground v.1.15,2013-01-19 02:55:00,
2013-01-18 22:01:00,20.2,17.7,30.41,WNW,292,0.0,0.0,90,0.00,,,0.00,Wunderground v.1.15,2013-01-19 03:01:00,
2013-01-18 22:06:00,20.7,18.5,30.41,WNW,292,0.0,0.0,91,0.00,,,0.00,Wunderground v.1.15,2013-01-19 03:06:00,
2013-01-18 22:12:00,22.4,19.9,30.40,SE,124,0.0,2.0,90,0.00,,,0.00,Wunderground v.1.15,2013-01-19 03:12:00,
2013-01-18 22:17:00,24.5,20.6,30.40,SE,124,0.0,2.0,85,0.00,,,0.00,Wunderground v.1.15,2013-01-19 03:17:00,
2013-01-18 22:22:00,26.2,20.9,30.40,SE,124,0.0,0.0,80,0.00,,,0.00,Wunderground v.1.15,2013-01-19 03:22:00,
2013-01-18 22:27:00,27.9,21.0,30.39,SE,124,1.0,3.0,75,0.00,,,0.00,Wunderground v.1.15,2013-01-19 03:27:00,
2013-01-18 22:32:00,29.2,21.0,30.39,SE,127,2.0,2.0,71,0.00,,,0.00,Wunderground v.1.15,2013-01-19 03:32:00,
2013-01-18 22:38:00,29.9,21.0,30.38,SE,128,2.0,3.0,69,0.00,,,0.00,Wunderground v.1.15,2013-01-19 03:38:00,
2013-01-18 22:44:00,30.2,20.9,30.38,SE,128,1.0,1.0,68,0.00,,,0.00,Wunderground v.1.15,2013-01-19 03:44:00,
2013-01-18 22:50:00,30.6,20.9,30.38,SE,138,2.0,4.0,67,0.00,,,0.00,Wunderground v.1.15,2013-01-19 03:50:00,
2013-01-18 22:55:00,30.8,20.8,30.38,SSE,154,2.0,3.0,66,0.00,,,0.00,Wunderground v.1.15,2013-01-19 03:55:00,
2013-01-18 23:01:00,30.9,20.5,30.38,SSE,163,2.0,2.0,65,0.00,,,0.00,Wunderground v.1.15,2013-01-19 04:01:00,
2013-01-18 23:06:00,30.9,20.9,30.37,SSE,163,1.0,2.0,66,0.00,,,0.00,Wunderground v.1.15,2013-01-19 04:06:00,
2013-01-18 23:11:00,30.8,20.4,30.37,SSE,163,1.0,2.0,65,0.00,,,0.00,Wunderground v.1.15,2013-01-19 04:11:00,
2013-01-18 23:17:00,30.8,20.8,30.37,SSE,163,1.0,4.0,66,0.00,,,0.00,Wunderground v.1.15,2013-01-19 04:17:00,
2013-01-18 23:23:00,30.8,20.8,30.37,SSE,163,1.0,1.0,66,0.00,,,0.00,Wunderground v.1.15,2013-01-19 04:23:00,
2013-01-18 23:29:00,30.8,20.8,30.37,SSE,151,1.0,4.0,66,0.00,,,0.00,Wunderground v.1.15,2013-01-19 04:29:00,
2013-01-18 23:34:00,31.0,21.0,30.36,SE,145,2.0,3.0,66,0.00,,,0.00,Wunderground v.1.15,2013-01-19 04:34:00,
2013-01-18 23:40:00,31.0,20.6,30.36,SSW,203,2.0,2.0,65,0.00,,,0.00,Wunderground v.1.15,2013-01-19 04:40:00,
2013-01-18 23:46:00,30.9,20.9,30.36,SSW,203,1.0,4.0,66,0.00,,,0.00,Wunderground v.1.15,2013-01-19 04:46:00,
2013-01-18 23:51:00,30.7,20.7,30.36,SSW,203,1.0,2.0,66,0.00,,,0.00,Wunderground v.1.15,2013-01-19 04:51:00,
2013-01-18 23:56:00,30.7,20.7,30.36,SSW,203,1.0,2.0,66,0.00,,,0.00,Wunderground v.1.15,2013-01-19 04:56:00,